Location: Santa Cristina
(46.5667°N, 11.7167°E)
Time: 06:59:29
(UTC+00:00)

Cosmos 2278 Rocket - Pass Details

Date: 21 April 2021
Orbit: 842 x 844 km, 71.0° (Epoch: 05 May)

Event Time Altitude Azimuth Distance (km) Brightness Sun altitude
Exits shadow 03:11:51 - 280° (W) 2,844 4.5 -10.8°
Reaches altitude 10° 03:13:37 10° 294° (WNW) 2,469 4.3 -10.5°
Maximum altitude 03:16:25 14° 324° (NW) 2,214 4.3 -10.1°
Drops below altitude 10° 03:19:14 10° 354° (N) 2,473 4.9 -9.7°
Sets 03:23:05 0° 20° (NNE) 3,411 6.2 -9.1°
